Location: Newark
(46.3833°N, 6.2000°E)
Time: 15:16:38
(UTC+00:00)

N. Korean satellite - Pass Details

Date: 02 March 2020
Orbit: 454 x 507 km, 97.2° (Epoch: 31 March)

Event Time Altitude Azimuth Distance (km) Brightness Sun altitude
Rises 05:31:07 0° 11° (N) 2,616 10.4 -7.9°
Reaches altitude 10° 05:33:14 10° 10° (N) 1,721 9.5 -7.5°
Maximum altitude 05:36:56 80° 285° (WNW) 512 6.6 -6.9°
Drops below altitude 10° 05:40:34 10° 197° (SSW) 1,682 9.2 -6.2°
Sets 05:42:36 0° 197° (SSW) 2,550 10.1 -5.9°
